THOR ABLESTAR DEB, 558

Orbit data source: Space-Track

THOR ABLESTAR DEB, 558 is space debris in LEO originally from a launch on Thu, 29 Jun 1961 UTC launched from the Air Force Eastern Test Range (AFETR). Debris objects in space refer to the collection of defunct objects orbiting the Earth. Examples of debris include non-operational satellites, rocket bodies, and fragments generated from explosions, collisions, or faulty payload assembly.

Loading next visibility...
Identifier
558, 1961-015GQ
Orbit
LEO
Last TLE update
17 hours ago
Origin
Manufacturer
Unknown
Mission
Spacecraft
Bus & Motor
Unknown
Mass
Unknown
Launch date (UTC)
1961-06-29 (64 years ago)
Launch vehicle
Unknown
Launch site
Air Force Eastern Test Range (AFETR)
Object type
Payload
Rocket body
Debris
Shape & HBR
Unknown
Radar Cross Section
Small (<0.1 m²)

Expand to show TLE details & history

TLE from 17 hours ago
0 THOR ABLESTAR DEB
1 00558U 61015GQ  25186.26770808  .00000134  00000-0  48295-3 0  9990
2 00558  65.6962 178.2223 0481516 238.6353 223.9743 12.86415018  4936
Epoch: 2025-07-05T06:25Z
TLE epoch observation values (Epoch: 2025-07-05T06:25:29.978Z)
Latitude
64.30261°
Longitude
-90.7212°
Altitude
1,600.763 km
Speed
6.948 km/s
True Right ascension
19h 16m 38s
True Declination
64° 10' 56"
Sunlit
Object was in daylight at epoch
Visualization orbit readout
Latitude
64.37209°
Longitude
-92.68618°
Altitude
1,600.486 km
Speed
6.948 km/s
Apparent Right ascension
21h 31m 49s
Apparent Declination
23° 05' 49"
Sunlit
Object is in daylight
Visualization observer readout
Local Sidereal Time
11:09:17
Azimuth
24.35° NE
Elevation
-23.013°
Doppler factor
1
Orbital elements
Apogee altitude
1,684.784 km
Perigee altitude
943.97 km
Semi-major axis
7,692.514 km
Eccentricity
0.04815
Inclination
65.6962°
RAAN
178.2223°
Arg. of periapsis
238.6353°
True anomaly
Unknown
Mean anomaly
223.9743°
Eccentric anomaly
Unknown
Mean motion
3.21692 °/min
Orbital period
111.91 mins
BSTAR
0.00048295
Loading maneuver chart data...
Loading SW <> Apogee altitude chart data...

THOR ABLESTAR DEB Visibility forecast

Observer location: undefined°, undefined°

Span
Click to sort rows by Start time (UTC) header in descending order
Start Az.
Max El. time (UTC)
Max El. Az.
Max El.
End time (UTC)
End Az.
18 mins2025-07-06 00:36:58.317Z191.183° SSW2025-07-06 00:45:58.317Z103.386° ESE42.072°2025-07-06 00:54:58.317Z36.309° NE
17 mins2025-07-06 02:33:58.317Z251.041° W2025-07-06 02:41:58.317Z315.819° NNW33.086°2025-07-06 02:50:58.317Z21.899° NNE
9 mins2025-07-06 04:36:58.317Z315.579° NNW2025-07-06 04:40:58.317Z341.937° N15.956°2025-07-06 04:45:58.317Z14.27° NNE
8 mins2025-07-06 06:37:58.317Z349.136° N2025-07-06 06:40:58.317Z8.611° NNE14.074°2025-07-06 06:45:58.317Z42.154° NE
13 mins2025-07-06 08:33:58.317Z344.785° N2025-07-06 08:40:58.317Z43.371° NE28.525°2025-07-06 08:46:58.317Z97.734° ESE
14 mins2025-07-06 10:29:58.317Z324.145° NNW2025-07-06 10:36:58.317Z253.642° W43.334°2025-07-06 10:43:58.317Z163.727° S
11 mins2025-07-06 23:01:58.317Z137.913° SSE2025-07-06 23:06:58.317Z103.448° ESE19.948°2025-07-06 23:12:58.317Z62.324° ENE
|